Regional Weather Roundup
Issued by NWS

Home | Current Version | Previous Version | Graphics & Text | Print | Product List | Glossary Off
Versions: 1 2 3 4 5 6 7 8 9 10 11 12 13 14 15 16 17 18 19 20 21 22 23 24 25 26 27 28 29 30 31 32 33 34 35 36 37 38 39 40 41 42 43 44 45 46 47 48 49 50

000
ASUS43 KDMX 230506
RWRIA

WEATHER ROUNDUP FOR IOWA
NATIONAL WEATHER SERVICE DES MOINES IA
1200 AM CDT SUN JUL 23 2017

NOTE: "FAIR" INDICATES FEW OR NO CLOUDS BELOW 12,000 FEET WITH NO
SIGNIFICANT WEATHER AND/OR OBSTRUCTIONS TO VISIBILITY.

* - THESE STATIONS ARE NOT NWS STATIONS...THUS NOT UNDER NWS
QUALITY CONTROL.  THEY ALSO DO NOT REPORT WEATHER SUCH
AS PRECIPITATION OR FOG.

IAZ001>003-012>014-020>022-031>034-043>046-230600-
   NORTHWEST IOWA

CITY           SKY/WX    TMP DP  RH WIND       PRES   REMARKS
CARROLL *      CLOUDY    72  70  94 CALM      29.90R
CHEROKEE *     CLEAR     68  68 100 CALM      29.91F FOG
DENISON *      FOG       70  70 100 CALM      29.94R VSB<1/4
ORANGE CITY *  CLEAR     70  70 100 CALM      29.93S
SHELDON *      CLEAR     64  64 100 CALM      29.91S
SIOUX CITY     PTCLDY    68  68 100 N5        29.90F FOG
SPENCER        CLEAR     67  66  97 SW3       29.91S
STORM LAKE *   CLEAR     72  70  94 W8        29.92F
$$

IAZ055>058-069>071-079>083-090>094-230600-
   SOUTHWEST IOWA

CITY           SKY/WX    TMP DP  RH WIND       PRES   REMARKS
ATLANTIC *     MOCLDY    73  73 100 CALM      29.91R
AUDUBON *      CLEAR     72  70  94 CALM      29.93R
CLARINDA *       N/A     79  77  94 NW5       29.94R HX  83
COUNCIL BLFS * PTCLDY    73  73 100 SW6       29.94R
CRESTON *      MOCLDY    77  75  94 CALM      29.93R
HARLAN  *      FOG       70  70 100 CALM      29.95R VSB 1/2
LAMONI         CLOUDY    78  74  87 CALM      29.91R HX  81
RED OAK *      MOCLDY    77  75  94 VRB7      29.93R
SHENANDOAH *   CLOUDY    79  77  94 CALM      29.93R HX  83
$$

IAZ047>049-059>061-072>074-084-230600-
   CENTRAL IOWA

CITY           SKY/WX    TMP DP  RH WIND       PRES   REMARKS
AMES           CLOUDY    73  73 100 SW3       29.88R
ANKENY *       PTCLDY    75  73  94 CALM      29.89R
BOONE *        PTCLDY    75  73  94 NW6       29.88S
CHARITON *     CLOUDY    77  73  88 CALM      29.89S
DES MOINES     MOCLDY    79  75  87 W5        29.87S HX  83
GRINNELL*      CLOUDY    75  73  93 CALM      29.90R
KNOXVILLE *    CLOUDY    77  73  88 CALM      29.87R
MARSHALLTOWN   PTCLDY    75  74  96 NW6       29.87S
NEWTON *       MOCLDY    75  73  94 W5        29.88R
PELLA *        PTCLDY    76  73  88 NW3       29.89R
$$

IAZ004>006-015-016-023>025-035-036-230600-
   NORTH CENTRAL IOWA

CITY           SKY/WX    TMP DP  RH WIND       PRES   REMARKS
ALGONA *       CLEAR     70  70 100 CALM      29.89F
CLARION *      CLEAR     72  72 100 CALM      29.88F
ESTHERVILLE    CLEAR     67  66  97 SW3       29.89S
FORT DODGE *   CLEAR     72  66  83 CALM      29.89F
MASON CITY     PTCLDY    70  68  93 W5        29.90F
FOREST CITY *    N/A     70  70 100 CALM      29.89F
WEBSTER CITY * CLEAR     72  70  94 NW5       29.87S
IOWA FALLS *     N/A     74  72  94 CALM      29.89F
$$

IAZ007>011-017>019-026>030-037>042-050>054-066-230600-
   NORTHEAST IOWA

CITY           SKY/WX    TMP DP  RH WIND       PRES   REMARKS
CEDAR RAPIDS   CLOUDY    72  72 100 NW5       29.84S
CHARLES CITY * CLEAR     72  72 100 NW6       29.87F
DECORAH *      PTCLDY    73  72  94 CALM      29.85S
DUBUQUE        CLOUDY    74  72  93 CALM      29.84F
MONTICELLO *   FOG       75  73  94 NW5       29.84R VSB 3/4
OELWEIN *        N/A    N/A N/A N/A MISG        N/A
WATERLOO       PTCLDY    74  71  91 W5        29.84F
$$

IAZ064-065-067-068-078-230600-
   EAST CENTRAL IOWA

CITY           SKY/WX    TMP DP  RH WIND       PRES   REMARKS
DAVENPORT      CLOUDY    74  73  97 W3        29.84F FOG
IOWA CITY      CLOUDY    78  73  84 NW7       29.85S HX  81
MT. PLEASANT * PTCLDY    74  74 100 CALM      29.87R
MUSCATINE *    CLOUDY    77  73  88 W7        29.84R
QUAD CITIES    CLOUDY    75  72  90 CALM      29.81F
$$

IAZ062-063-075>077-085>089-095>099-230600-
   SOUTHEAST IOWA

CITY           SKY/WX    TMP DP  RH WIND       PRES   REMARKS
BURLINGTON     CLOUDY    79  77  94 N5        29.84R HX  83
FAIRFIELD *    CLOUDY    73  72  94 W3        29.87R
FORT MADISON * CLOUDY    79  77  94 NW3       29.87R HX  83
KEOKUK *       CLOUDY    79  77  94 N5        29.85R HX  83
OSKALOOSA *      N/A     74  72  93 NW3       29.88R
CENTERVILLE *    N/A     75  73  94 CALM      29.90S
OTTUMWA        MOCLDY    76  74  93 NW5       29.87R
WASHINGTON *   PTCLDY    75  73  94 W6        29.87R
$$

ABBREVIATIONS USED IN REMARKS
   TC - TEMPERATURES IN CELSIUS
  WCI - WIND CHILL INDEX
   HX - HEAT INDEX
  VSB - VISIBILITY
$$




USA.gov is the U.S. government's official web portal to all federal, state and local government web resources and services.